This demonstration page uses our WeatherBlox Daily Observations layout. Learn more.

Left ArrowRight Arrow

Hourly Observations for December 1, 2018

Temp ( °F °C ) Dew Point ( °F °C ) Humidity (%) Winds ( mph kmh ) Pressure ( in mb ) Visibility ( mi km ) Precip ( " mm )
12:40 am 00:40 Cloudy with Light Rain 36 2 36 2 100 100 NE 16 26 29.56 1001 7 11 0.06 1.52
12:57 am 00:57 Cloudy with Light Rain 36 2.2 35 1.7 97 97 NE 15 24 29.50 999 6 10 0.11 2.79
1:57 am 01:57 Cloudy with Light Rain 36 2.2 35 1.7 97 97 NE 18 30 29.44 997 7 11 0.07 1.78
2:57 am 02:57 Cloudy with Light Rain 36 2.2 35 1.7 97 97 NE 16 26 29.44 997 7 11 0.09 2.29
3:57 am 03:57 Cloudy with Light Snow 33 0.6 32 0 96 96 NNE 14 22 29.40 996 5 8 0.09 2.29
4:12 am 04:12 Cloudy with Light Snow 34 1 32 0 93 93 NNE 14 22 29.44 997 5 8 0.01 0.25
4:27 am 04:27 Cloudy with Light Snow 34 1 32 0 93 93 NNE 16 26 29.44 997 6 10 0.00 0.00
4:57 am 04:57 Cloudy with Light Snow 33 0.6 32 0 96 96 NNE 15 24 29.37 995 7 11 0.04 1.02
5:07 am 05:07 Cloudy with Light Snow 34 1 34 1 100 100 NNE 16 26 29.44 997 6 10 0.01 0.25
5:36 am 05:36 Cloudy with Light Snow 34 1 34 1 100 100 NNE 16 26 29.41 996 8 13 0.04 1.02
5:57 am 05:57 Cloudy with Light Snow 33 0.6 33 0.6 100 100 NNE 17 28 29.34 994 6 10 0.07 1.78
6:54 am 06:54 Windy with Snow Likely 34 1 32 0 93 93 NNE 23 37 29.38 995 3 5 0.05 1.27
6:57 am 06:57 Windy with Snow Likely 33 0.6 32 0 96 96 NNE 22 35 29.31 993 3 5 0.05 1.27
7:32 am 07:32 Windy with Snow Likely 34 1 32 0 93 93 NNE 22 35 29.35 994 2 3 0.04 1.02
7:45 am 07:45 Windy with Snow Likely 32 0 32 0 100 100 NNE 23 37 29.35 994 2 2 0.00 0.00
7:53 am 07:53 Windy with Snow Likely 32 0 32 0 100 100 NNE 22 35 29.35 994 1 2 0.08 2.03
7:57 am 07:57 Windy with Snow Likely 32 0 32 0 100 100 NNE 22 35 29.29 992 1 2 0.08 2.03
8:10 am 08:10 Windy with Snow Likely 32 0 32 0 100 100 N 22 35 29.35 994 2 2 0.01 0.25
8:57 am 08:57 Windy with Snow Likely 32 0 32 0 100 100 NNE 22 35 29.28 992 1 2 0.02 0.51
9:30 am 09:30 Windy with Snow Likely 32 0 32 0 100 100 NNE 24 39 29.32 993 2 3 0.00 0.03
9:57 am 09:57 Windy with Snow Likely 33 0.6 32 0 96 96 NNE 25 41 29.28 992 2 2 0.00 0.03
10:57 am 10:57 Windy with Snow Likely 33 0.6 32 0 96 96 NNE 28 44 29.29 992 1 2 0.01 0.25
11:18 am 11:18 Windy with Snow Likely 34 1 32 0 93 93 NNE 28 44 29.35 994 1 2 0.00 0.03
11:37 am 11:37 Windy with Snow Likely 32 0 32 0 100 100 NNE 26 43 29.35 994 1 2 0.00 0.03
11:57 am 11:57 Windy with Snow Likely 32 0 32 0 100 100 NNE 26 43 29.29 992 1 2 0.00 0.03
12:57 pm 12:57 Windy with Snow Likely 33 0.6 32 0 96 96 N 20 31 29.30 992 1 2 0.00 0.03
1:07 pm 13:07 Windy with Snow Likely 34 1 32 0 93 93 N 24 39 29.35 994 1 2 0.00 0.00
1:55 pm 13:55 Windy with Snow Likely N/A N/A N/A N 24 39 N/A 1 1 0.00 0.00
1:57 pm 13:57 Windy with Snow Likely N/A N/A N/A N 25 41 N/A 1 1 0.00 0.03
2:10 pm 14:10 Windy with Snow Likely 32 0 30 -1 93 93 N 25 41 29.38 995 1 2 0.00 0.03
2:29 pm 14:29 Windy with Snow Likely 32 0 30 -1 93 93 N 23 37 29.38 995 1 2 0.00 0.03
2:57 pm 14:57 Windy with Snow Likely 32 0 31 -0.6 96 96 N 24 39 29.34 994 3 4 0.00 0.03
3:16 pm 15:16 Windy with Snow Likely 32 0 30 -1 93 93 N 26 43 29.41 996 1 2 0.00 0.03
3:29 pm 15:29 Windy with Snow Likely 32 0 30 -1 93 93 N 25 41 29.41 996 1 2 0.00 0.00
3:38 pm 15:38 Windy with Snow Likely 32 0 30 -1 93 93 N 23 37 29.41 996 1 1 0.00 0.03
3:49 pm 15:49 Windy with Snow Likely 32 0 30 -1 93 93 N 29 46 29.41 996 1 2 0.00 0.00
3:55 pm 15:55 Windy with Snow Likely 32 0 30 -1 93 93 N 25 41 29.41 996 3 5 0.00 0.00
3:57 pm 15:57 Windy with Snow Likely 32 0 31 -0.6 96 96 N 28 44 29.37 995 4 6 0.00 0.03
4:18 pm 16:18 Cloudy with Light Wintry Mix 32 0 30 -1 93 93 N 28 44 29.44 997 6 10 0.00 0.03
4:57 pm 16:57 Cloudy 31 -0.6 29 -1.7 92 92 N 31 50 29.41 996 10 16 0.00 0.03
5:21 pm 17:21 Windy with Snow Likely 30 -1 28 -2 93 93 N 30 48 29.50 999 2 3 0.00 0.00
5:31 pm 17:31 Windy with Snow Likely 30 -1 28 -2 93 93 N 28 44 29.53 1000 2 3 0.00 0.00
5:52 pm 17:52 Windy with Snow Likely 30 -1 28 -2 93 93 N 31 50 29.53 1000 3 5 0.00 0.03
5:57 pm 17:57 Windy with Snow Likely 31 -0.6 29 -1.7 92 92 N 30 48 29.44 997 4 6 0.00 0.03
6:39 pm 18:39 Windy with Snow Likely 30 -1 28 -2 93 93 N 26 43 29.53 1000 6 10 0.00 0.00
6:57 pm 18:57 Windy with Snow Likely 31 -0.6 29 -1.7 92 92 N 28 44 29.46 998 9 14 0.00 0.03
7:57 pm 19:57 Windy with Snow Likely 31 -0.6 29 -1.7 92 92 N 28 44 29.49 999 5 8 0.00 0.03
8:57 pm 20:57 Windy with Snow Likely 31 -0.6 29 -1.7 92 92 N 26 43 29.51 999 3 5 0.00 0.03
9:57 pm 21:57 Windy with Snow Likely 30 -1.1 29 -1.7 96 96 N 29 46 29.52 1000 4 6 0.00 0.03
10:57 pm 22:57 Windy with Snow Likely 30 -1.1 28 -2.2 92 92 N 23 37 29.56 1001 7 11 0.00 0.03
11:36 pm 23:36 Windy with Snow Likely 30 -1 28 -2 93 93 N 23 37 29.62 1003 6 10 0.00 0.03

Powered by AerisWeather